Shawnee, OK

4:09 AM CDT on May 28, 2017 (GMT -0500)
Shawnee Municipal

Weather History for KSNL - October, 2012

Change the Weather History Date:

Monday, October 1, 2012

  Actual Average (KTIK) Record (KTIK)
Temperature  
Mean Temperature 70 °F -  
Max Temperature 82 °F 74 °F 93 °F (2014)
Min Temperature 57 °F 55 °F 44 °F (2003)
Cooling Degree Days 4    
Growing Degree Days 20 (Base 50)    
Moisture  
Dew Point 57 °F    
Average Humidity 72    
Maximum Humidity 100    
Minimum Humidity 37    
Precipitation  
Precipitation 0.02 in - - ()
Sea Level Pressure  
Sea Level Pressure 29.89 in    
Wind  
Wind Speed 6 mph (NNW)    
Max Wind Speed 24 mph    
Max Gust Speed 28 mph    
Visibility 10 miles    
Events Rain , Thunderstorm    
Averages and records for this station are not official NWS values.
T = Trace of Precipitation, MM = Missing Value Source: NWS Daily Summary

Daily Weather History Graph

Daily Weather History Graph

Search for Another Location

Airport or City:

Trip Planner

Search our weather history database for the weather conditions in past years. The results will help you decide how hot, cold, wet, or windy it might be!

Date:

Astronomy

Oct. 01, 2012 Rise Set
Actual Time 7:23 AM CDT 7:10 PM CDT
Civil Twilight 6:57 AM CDT 7:36 PM CDT
Nautical Twilight 6:28 AM CDT 8:05 PM CDT
Astronomical Twilight 5:58 AM CDT 8:35 PM CDT
Moon 7:54 PM CDT (10/1) 8:48 AM CDT (10/1)
Length of Visible Light 12h 38m
Length of Day
11h 47m
Full, 98% of the Moon is Illuminated
Oct 1
Full
Oct 8
Last Quarter
Oct 15
New
Oct 21
First Quarter
Oct 29
Full

Hourly Weather History & Observations

Time (CDT) Temp. Heat Index Dew Point Humidity Pressure Visibility Wind Dir Wind Speed Gust Speed Precip Events Conditions
12:15 AM 62.6 °F - 60.8 °F 94% 29.91 in 10.0 mi Calm Calm - N/A   Clear
12:35 AM 62.6 °F - 60.8 °F 94% 29.91 in 10.0 mi Calm Calm - N/A   Clear
12:55 AM 62.6 °F - 59.0 °F 88% 29.89 in 10.0 mi Calm Calm - N/A   Clear
1:15 AM 60.8 °F - 60.8 °F 100% 29.89 in 10.0 mi Calm Calm - N/A   Clear
1:35 AM 60.8 °F - 59.0 °F 94% 29.88 in 10.0 mi NNE 4.6 mph - N/A   Clear
1:55 AM 59.0 °F - 59.0 °F 100% 29.89 in 10.0 mi Calm Calm - 0.01 in   Clear
2:15 AM 59.0 °F - 59.0 °F 100% 29.89 in 10.0 mi Calm Calm - N/A   Clear
2:35 AM 59.0 °F - 59.0 °F 100% 29.89 in 10.0 mi Calm Calm - N/A   Clear
2:55 AM 59.0 °F - 57.2 °F 94% 29.88 in 10.0 mi Calm Calm - N/A   Clear
3:15 AM 59.0 °F - 57.2 °F 94% 29.88 in 10.0 mi NNW 3.5 mph - N/A   Clear
3:35 AM 59.0 °F - 57.2 °F 94% 29.88 in 10.0 mi Calm Calm - N/A   Clear
3:55 AM 59.0 °F - 57.2 °F 94% 29.87 in 10.0 mi Calm Calm - N/A   Clear
4:15 AM 59.0 °F - 57.2 °F 94% 29.87 in 10.0 mi Calm Calm - N/A   Clear
4:35 AM 59.0 °F - 57.2 °F 94% 29.87 in 10.0 mi Calm Calm - N/A   Clear
4:55 AM 59.0 °F - 57.2 °F 94% 29.87 in 10.0 mi Calm Calm - N/A   Clear
5:15 AM 59.0 °F - 57.2 °F 94% 29.87 in 10.0 mi Calm Calm - N/A   Clear
5:35 AM 60.8 °F - 57.2 °F 88% 29.87 in 10.0 mi North 4.6 mph - N/A   Clear
5:55 AM 59.0 °F - 55.4 °F 88% 29.88 in 10.0 mi NNW 3.5 mph - N/A   Clear
6:15 AM 59.0 °F - 57.2 °F 94% 29.89 in 10.0 mi Calm Calm - N/A   Clear
6:35 AM 57.2 °F - 57.2 °F 100% 29.89 in 10.0 mi Calm Calm - N/A   Clear
6:55 AM 59.0 °F - 57.2 °F 94% 29.89 in 10.0 mi North 3.5 mph - N/A   Clear
7:15 AM 59.0 °F - 55.4 °F 88% 29.89 in 10.0 mi Calm Calm - N/A   Clear
7:35 AM 59.0 °F - 55.4 °F 88% 29.90 in 10.0 mi WNW 3.5 mph - N/A   Clear
7:55 AM 59.0 °F - 55.4 °F 88% 29.90 in 10.0 mi NW 5.8 mph - N/A   Clear
8:15 AM 59.0 °F - 57.2 °F 94% 29.90 in 10.0 mi NNW 4.6 mph - N/A   Clear
8:35 AM 60.8 °F - 57.2 °F 88% 29.90 in 10.0 mi North 3.5 mph - N/A   Clear
8:55 AM 62.6 °F - 59.0 °F 88% 29.90 in 10.0 mi NNW 5.8 mph - N/A   Clear
9:15 AM 62.6 °F - 57.2 °F 82% 29.91 in 10.0 mi NNW 8.1 mph - N/A   Clear
9:35 AM 66.2 °F - 59.0 °F 78% 29.92 in 10.0 mi NW 11.5 mph 18.4 mph N/A   Clear
9:55 AM 68.0 °F - 57.2 °F 68% 29.92 in 10.0 mi NNW 12.7 mph - N/A   Clear
10:15 AM 69.8 °F - 55.4 °F 60% 29.92 in 10.0 mi NNW 13.8 mph - N/A   Clear
10:35 AM 71.6 °F - 55.4 °F 57% 29.92 in 10.0 mi NNW 13.8 mph 19.6 mph N/A   Clear
10:55 AM 71.6 °F - 55.4 °F 57% 29.92 in 10.0 mi NNW 12.7 mph - N/A   Clear
11:15 AM 73.4 °F - 57.2 °F 57% 29.92 in 10.0 mi North 11.5 mph - N/A   Clear
11:35 AM 77.0 °F - 59.0 °F 54% 29.92 in 10.0 mi NNW 12.7 mph - N/A   Clear
11:55 AM 77.0 °F - 57.2 °F 50% 29.92 in 10.0 mi North 12.7 mph - N/A   Clear
12:15 PM 77.0 °F - 55.4 °F 47% 29.92 in 10.0 mi NNW 13.8 mph - N/A   Clear
12:35 PM 78.8 °F - 55.4 °F 44% 29.91 in 10.0 mi North 16.1 mph 20.7 mph N/A   Clear
12:55 PM 78.8 °F - 55.4 °F 44% 29.91 in 10.0 mi North 13.8 mph 21.9 mph 0.01 in   Clear
1:15 PM 78.8 °F - 55.4 °F 44% 29.90 in 10.0 mi North 17.3 mph 23.0 mph N/A   Clear
1:35 PM 80.6 °F 80.5 °F 55.4 °F 42% 29.89 in 10.0 mi NNW 12.7 mph 18.4 mph N/A   Clear
1:55 PM 80.6 °F 80.5 °F 55.4 °F 42% 29.88 in 10.0 mi NW 13.8 mph 18.4 mph N/A   Clear
2:15 PM 80.6 °F 80.5 °F 55.4 °F 42% 29.86 in 10.0 mi NW 15.0 mph - N/A   Clear
2:35 PM 80.6 °F 80.3 °F 53.6 °F 39% 29.86 in 10.0 mi NW 16.1 mph 20.7 mph N/A   Clear
2:55 PM 80.6 °F 80.3 °F 53.6 °F 39% 29.85 in 10.0 mi North 15.0 mph 21.9 mph N/A   Clear
3:15 PM 82.4 °F 81.7 °F 55.4 °F 39% 29.85 in 10.0 mi North 13.8 mph 24.2 mph N/A   Clear
3:35 PM 82.4 °F 81.4 °F 53.6 °F 37% 29.85 in 10.0 mi North 16.1 mph 24.2 mph N/A   Scattered Clouds
3:55 PM 80.6 °F - 51.8 °F 37% 29.84 in 10.0 mi North 13.8 mph - N/A   Scattered Clouds
4:15 PM 82.4 °F 81.4 °F 53.6 °F 37% 29.84 in 10.0 mi NNW 13.8 mph 18.4 mph N/A   Scattered Clouds
4:35 PM 82.4 °F 81.4 °F 53.6 °F 37% 29.84 in 10.0 mi North 16.1 mph 21.9 mph N/A   Clear
5:15 PM 78.8 °F - 53.6 °F 42% 29.84 in 10.0 mi NNW 11.5 mph - N/A   Scattered Clouds
5:35 PM 78.8 °F - 53.6 °F 42% 29.85 in 10.0 mi NNW 10.4 mph - N/A   Scattered Clouds
5:55 PM 77.0 °F - 53.6 °F 44% 29.85 in 10.0 mi North 13.8 mph - N/A   Mostly Cloudy
6:15 PM 77.0 °F - 53.6 °F 44% 29.87 in 10.0 mi North 11.5 mph 23.0 mph N/A   Mostly Cloudy
6:35 PM 77.0 °F - 55.4 °F 47% 29.87 in 10.0 mi North 24.2 mph 27.6 mph N/A   Mostly Cloudy
6:55 PM 73.4 °F - 57.2 °F 57% 29.88 in 10.0 mi North 17.3 mph 24.2 mph N/A   Scattered Clouds
7:15 PM 73.4 °F - 55.4 °F 53% 29.89 in 10.0 mi North 17.3 mph 26.5 mph N/A   Clear
7:35 PM 71.6 °F - 55.4 °F 57% 29.89 in 10.0 mi NNW 12.7 mph - N/A   Clear
7:55 PM 71.6 °F - 57.2 °F 60% 29.90 in 10.0 mi NNW 11.5 mph 18.4 mph N/A   Scattered Clouds
8:15 PM 68.0 °F - 55.4 °F 64% 29.91 in 10.0 mi North 9.2 mph - N/A   Scattered Clouds
8:55 PM 66.2 °F - 59.0 °F 78% 29.93 in 10.0 mi North 6.9 mph - N/A   Scattered Clouds
9:15 PM 64.4 °F - 60.8 °F 88% 29.93 in 10.0 mi North 8.1 mph - N/A   Scattered Clouds
9:35 PM 64.4 °F - 60.8 °F 88% 29.94 in 10.0 mi NNW 6.9 mph - N/A   Scattered Clouds
9:55 PM 66.2 °F - 60.8 °F 83% 29.94 in 10.0 mi North 9.2 mph - N/A   Overcast
10:15 PM 66.2 °F - 60.8 °F 83% 29.94 in 10.0 mi North 10.4 mph - N/A   Mostly Cloudy
10:35 PM 64.4 °F - 60.8 °F 88% 29.95 in 10.0 mi North 10.4 mph - N/A Rain Rain
10:55 PM 62.6 °F - 62.6 °F 100% 29.95 in 10.0 mi North 9.2 mph - N/A Rain , Thunderstorm Light Thunderstorms and Rain
11:15 PM 62.6 °F - 60.8 °F 94% 29.95 in 10.0 mi North 10.4 mph - N/A   Mostly Cloudy
11:35 PM 64.4 °F - 60.8 °F 88% 29.96 in 10.0 mi North 16.1 mph - N/A Thunderstorm Thunderstorm